Regional Weather Roundup
Issued by NWS Wakefield, VA

Home | Current Version | Previous Version | Graphics & Text | Print | Product List | Glossary On
Versions: 1 2 3 4 5 6 7 8 9 10 11 12 13 14 15 16 17 18 19 20 21 22 23 24 25 26 27 28 29 30 31 32 33 34 35 36 37 38 39 40 41 42 43 44 45 46 47 48 49 50
000
ASUS41 KAKQ 271015
RWRAKQ

REGIONAL WEATHER ROUNDUP
NATIONAL WEATHER SERVICE WAKEFIELD VA
600 AM EDT MON JUL 27 2015

Note: "fair" indicates few or no clouds below 12,000 feet with no
significant weather and/or obstructions to visibility. * = Denotes
station may not report precipitation (e.g., rain,snow,etc.),
thunder or fog.

VAZ042-051-052>054-056-271100-
NORTHERN VIRGINIA

CITY           SKY/WX    TMP DP  RH WIND       PRES   REMARKS
WASH NATIONAL  LGT RAIN  76  70  82 S9        29.98F
DULLES         CLOUDY    71  69  93 SE3       29.97R
FORT BELVOIR   CLOUDY    72  68  87 VRB1      29.97S
QUANTICO       LGT RAIN  74  69  85 S10       29.97R
FREDERICKSBRG* DRIZZLE   74  70  86 SE3       29.96R
STAFFORD*      LGT RAIN  70  67  89 CALM      30.00S
WARRENTON      CLOUDY    71  69  96 CALM      29.97R
CULPEPER*      CLOUDY    70  68  95 CALM      29.97S
MANASSAS*      CLOUDY    72  68  88 S5        29.97S
LEESBURG*      MOCLDY    72  72 100 S6        29.98S FOG
WINCHESTER     PTCLDY    70  70 100 CALM      29.97S
FRONT ROYAL*   FAIR      70  68  94 CALM      29.96F
LURAY*         FAIR      72  72 100 CALM      29.98S
$$

VAZ048-049-060>072-079>083-271100-
CENTRAL AND SOUTH CENTRAL VIRGINIA

CITY           SKY/WX    TMP DP  RH WIND       PRES   REMARKS
RICHMOND       CLOUDY    75  69  81 CALM      29.99R
CHESTERFIELD*  FAIR      73  59  60 S3        30.00R
PETERSBURG*    CLOUDY    72  72 100 CALM      30.00R
HANOVER        RAIN      72  71  97 NE3       30.00R FOG
TAPPAHANNOCK*  CLOUDY    74  68  81 CALM      30.00R
QUINTON*       CLOUDY    72  71  98 E3        29.99R
CHARLOTTSVILLE CLOUDY    72  70  93 CALM      29.97S FOG
GORDONSVILLE*  FAIR      70  70 100 CALM      29.97S
ORANGE*        CLOUDY    70  70 100 CALM      29.98S
LOUISA*        CLOUDY    72  64  78 CALM      29.96S
BUMPASS*       FAIR      70  65  85 CALM      29.97S
FARMVILLE*     MOCLDY    70  69  98 S3        29.98S
CREWE*         CLOUDY   N/A N/A N/A CALM      29.99S
FORT PICKETT*  CLOUDY    70  67  89 SW3       30.00R
CHASE CITY*    FAIR      71  71 100 CALM      30.01R
CLARKSVILLE*   FAIR      70  68  94 CALM      30.00R
SOUTH HILL*    MOCLDY    69  67  92 CALM      30.06R
LAWRENCEVILLE* CLOUDY    70  68  94 CALM      30.00S
EMPORIA*       MOCLDY    70  68  94 CALM      30.01R
$$

VAZ088>098-271100-
SOUTHEAST VIRGINIA

CITY           SKY/WX    TMP DP  RH WIND       PRES   REMARKS
NORFOLK        CLOUDY    75  69  81 S6        29.99R
VIRGINIA BEACH CLOUDY    77  69  76 S5        29.99R
NORFOLK NAVAL  MOCLDY    76  70  82 S5        30.00S
WEST POINT*    CLOUDY    77  71  81 SW6       30.01R
SALUDA*        CLOUDY    75  71  88 NW5       29.99R
NEWPORT NEWS   LGT RAIN  76  70  82 SW6       29.99R
LANGLEY AFB    CLOUDY    76  71  82 SW3       29.99R
FORT EUSTIS    MOCLDY    76  76 100 SW5       29.98R
WILLIAMSBURG*  CLOUDY    79  73  83 S3        30.00R
HR EXEC AP*    FAIR      68  64  88 CALM      30.01S
FRANKLIN*      CLOUDY    71  69  95 S3        30.00S
WAKEFIELD      MOCLDY    73  70  90 CALM      29.99S
$$

VAZ020-022-025-037-045-271100-
WEST CENTRAL AND SOUTHWEST VIRGINIA

CITY           SKY/WX    TMP DP  RH WIND       PRES   REMARKS
STAUNTON*      CLOUDY    74  70  88 CALM      30.02S
WAYNESBORO*    FAIR      70  67  91 CALM      30.01S
HOT SPRINGS VA CLOUDY    68  64  87 SW5       30.12S
LYNCHBURG      MOCLDY    69  64  84 SW5       30.01S
DANVILLE       MOCLDY    70  66  87 CALM      30.01R
SOUTH BOSTON*  FAIR      68  66  94 CALM      30.01R
MARTINSVILLE   MOCLDY    67  67 100 CALM      30.04R
ROANOKE        CLOUDY    71  69  93 CALM      30.03S
BLACKSBURG     CLOUDY    68  68 100 CALM      30.09R
DUBLIN*        FOG       68  68 100 CALM      30.08R VSB 1
MARION*        CLOUDY    67  65  92 CALM      30.11R
HILLSVILLE*    CLOUDY    68  65  91 S5        30.08S
RICHLANDS*     FAIR      67  67  99 S5        30.08R
WISE*          PTCLDY    72  70  94 S3        30.09S
ABINGDON*      CLOUDY    71  67  87 CALM      30.06R
$$

MDZ021>025-VAZ099-100-271100-
SOUTHERN MARYLAND AND THE DELMARVA PENINSULA

CITY           SKY/WX    TMP DP  RH WIND       PRES   REMARKS
PATUXENT RIVER LGT RAIN  74  71  91 SW9       29.98R
BAY BRIDGE APT   N/A     72  70  94 SE7       29.98F
LEONARDTOWN    CLOUDY    73  70  88 CALM      30.01R
DOVER          LGT RAIN  69  69  99 CALM      29.98F
GEORGETOWN     RAIN      72  70  93 CALM      30.03R FOG
EASTON         RAIN      71  71 100 NE6       30.04R
CAMBRIDGE      CLOUDY    77  72  83 CALM      29.99R
SALISBURY      TSTM      72  71  97 N5        30.00R
OCEAN CITY     CLOUDY    77  73  87 SW5       29.99R
WALLOPS ISLAND CLOUDY    76  72  87 SW9       29.99R
ACCOMACK*      MOCLDY   N/A N/A N/A SW7       29.99S
$$

NCZ012>017-030>032-271100-
NORTH CENTRAL AND EASTERN NORTH CAROLINA

CITY           SKY/WX    TMP DP  RH WIND       PRES   REMARKS
ROANOKE RAPIDS FAIR      64  64 100 CALM      30.00S FOG
RALEIGH        MOCLDY    74  70  87 CALM      30.00S
ELIZABETH CITY MOCLDY    71  69  93 S3        30.00R
AHOSKIE*       PTCLDY    66  66  98 CALM      30.00S FOG
EDENTON*       MOCLDY    70  68  93 CALM      30.00R
CURRITUCK*     MOCLDY    73  69  89 CALM      30.01R
KILL DEVIL HLS MOCLDY    74  68  80 CALM      29.99S
MANTEO         MOCLDY    75  68  77 SE6       30.00S
CAPE HATTERAS  CLEAR     79  68  69 SE7       30.00R
TARBORO*         N/A     67  66  97 CALM      30.01R
GOLDSBORO      CLEAR     69  69  97 CALM      29.97R
WASHINGTON     CLEAR     68  67  96 CALM      30.00R
GREENVILLE     CLEAR     70  70 100 CALM      30.01R
NEW BERN       CLEAR     70  67  90 CALM      29.99S
WILMINGTON     MOCLDY    75  74  96 E5        29.96S
$$

VAZ048-271100-
ELSEWHERE

CITY           SKY/WX    TMP DP  RH WIND       PRES   REMARKS
HARRISBURG PA  MOCLDY    70  67  90 NE3       29.98R
BALTIMORE      LGT RAIN  72  70  93 SE6       29.96F FOG
ANNAPOLIS      LGT RAIN  74  69  85 SE10      29.97F
ANDREWS AFB    LGT RAIN  71  70  96 S10       29.98F
PHILADELPHIA   LGT RAIN  71  68  90 SE6       29.99F
HENDERSON NC   MOCLDY    70  67  90 SW3       30.00S
GREENSBORO     MOCLDY    72  67  84 SW3       30.01R
ROCKY MOUNT    CLEAR     68  67  96 CALM      30.00R FOG
$$

VAZ100-271100-
MARINE

STATION/POSITION TIME  TEMP    WIND        PRES    WAVE   SWELL
                       AIR SEA DIR/SP/G            HT/PER HT/PER
                 (UTC) (F)     (DEG/KT/KT) (MB)    (FT/S) (FT/S)
BRANDYWINE LGT   0900   74 76  300/ 20/ 23 1016.2R
CAPE MAY NJ      0900   76 79  200/  5/  7 1015.1R
LEWES DE         0900   76 71  220/  3/  5 1015.0R
15NM E FENWICK I 0950   78     190/ 10/ 12 1015.8R   2/11   2/11
OCEAN-CITY-INLET 0900   76 76  210/  7/  9 1014.3S
WACHAPREAGUE VA  0900   78 82  240/  5/  9 1015.3R
GOOSES REEF MD   1000   76 81  250/  8/ 12 1016.9R
COVE POINT MD    0900   76     220/ 15/ 18 1015.2S
SOLOMONS ISLAND  0900      83                N/A
BISHOPS HEAD MD  0900   78 80  230/ 14/ 16 1014.0R
POTOMAC MD       1000   79 82  240/ 10/ 14 1014.6R   1/ 3
CAMBRIDGE MD     0900   78 83   CALM  /  1 1014.2R
LEWISETTA VA     0900   78 82  140/  4/  5 1014.9R
RAPPAHANNOCK LGT 0900          210/ 14/ 15 1015.5R
STINGRAY PT      1000   79 82  220/  8/ 10 1015.6R   1/ 3
YORK RVR RNG VA  0900   79     220/ 11/ 13 1014.6R
YORKTOWN VA      0900   76 83  220/  2/  4 1014.9R
JAMESTOWN VA     1000   75 84  190/  4/  6   N/A
DOMINION TERM VA 0900   77     210/  8/ 10 1015.2R
KIPTOPEKE VA     0900      86  200/ 12/ 14   N/A
CHES BAY BRIDGE  0900   77 80  180/  7/  9 1014.9R
CAPE HENRY VA    0900   76     190/  3/  5   N/A
CHESAPEAKE LGHT  0900   79     180/ 14/ 14 1015.7F
WILLOUBY STN VA  0900   78     210/  9/ 11 1016.0R
CAPE HENRY BUOY  0928      80                N/A     3/12   2/12
1ST LANDING BUOY 1000      80              1015.4R   1/ 4
CAPE CHARLES BUO 0926      80                N/A     2/12   2/12
OFFSHORE WE BUOY 0911      81                N/A     3/11   2/11
64NM E OF VA BCH 0950   80 80  180/ 10/ 12 1015.6R   2/11   2/11
DUCK PIER NC     0900   78 80  160/  8/  9 1014.7R
44100 DUCK FRF   0924      80                N/A     2/12   2/12
44056 DUCK FRF   0911      81                N/A     2/12   2/12
OREGON INLET NC  0900   76 81  140/  3/  5 1015.5R
HATTERAS NC      0900   80 81  140/  6/  8 1015.1S
CAPE LOOKOUT NC  1000   80     110/ 10/ 11 1014.8S
$$


USA.gov is the U.S. government's official web portal to all federal, state and local government web resources and services.